Location: Chomutov
(50.4500°N, 13.4333°E)
Time: 05:17:01
(UTC+02:00)

ISS - Visible Passes

Search period start: 25 June 2021 00:00
Search period end: 05 July 2021 00:00
Orbit: 419 x 422 km, 51.6° (Epoch: 24 June)

Date Brightness Start Highest point End Pass type
(mag) Time Alt. Az. Time Alt. Az. Time Alt. Az.
30 Jun -1.4 03:29:36 10° S 03:31:21 14° SE 03:33:07 10° ESE visible
02 Jul -2.5 03:29:53 15° SSW 03:31:59 28° SE 03:34:54 10° E visible
03 Jul -2.1 02:43:27 18° SSE 02:44:05 19° SE 02:46:34 10° E visible
04 Jul -1.4 01:56:52 12° ESE 01:56:52 12° ESE 01:57:46 10° ESE visible
04 Jul -3.5 03:29:45 15° SW 03:32:19 53° SSE 03:35:37 10° ENE visible
